TimeCDT,TemperatureF,Dew PointF,Humidity,Sea Level PressureIn,VisibilityMPH,Wind Direction,Wind SpeedMPH,Gust SpeedMPH,PrecipitationIn,Events,Conditions,WindDirDegrees,DateUTC
12:13 AM,42.8,42.8,100,29.86,10.0,NNE,3.5,-,N/A,,Drizzle,20,2013-10-06 05:13:00
12:33 AM,42.8,42.8,100,29.86,10.0,Calm,Calm,-,N/A,,Light Drizzle,0,2013-10-06 05:33:00
12:53 AM,42.8,42.8,100,29.85,10.0,NNW,3.5,-,N/A,,Overcast,330,2013-10-06 05:53:00
1:13 AM,42.8,41.0,93,29.86,10.0,North,3.5,-,N/A,Rain,Light Rain,10,2013-10-06 06:13:00
1:33 AM,42.8,41.0,93,29.86,10.0,Calm,Calm,-,0.01,Rain,Rain,0,2013-10-06 06:33:00
1:53 AM,42.8,41.0,93,29.87,10.0,Calm,Calm,-,0.02,Rain,Rain,0,2013-10-06 06:53:00
2:13 AM,42.8,41.0,93,29.86,10.0,NNE,3.5,-,N/A,Rain,Rain,20,2013-10-06 07:13:00
2:33 AM,42.8,41.0,93,29.84,10.0,North,4.6,-,N/A,Rain,Rain,350,2013-10-06 07:33:00
2:53 AM,42.8,41.0,93,29.81,10.0,North,8.1,-,0.01,Rain,Rain,360,2013-10-06 07:53:00
3:13 AM,41.0,41.0,100,29.79,10.0,North,8.1,-,0.02,Rain,Light Rain,350,2013-10-06 08:13:00
3:33 AM,41.0,39.2,93,29.80,10.0,North,3.5,-,0.03,Rain,Rain,10,2013-10-06 08:33:00
3:53 AM,41.0,39.2,93,29.80,10.0,Calm,Calm,-,0.04,Rain,Light Rain,0,2013-10-06 08:53:00
4:13 AM,41.0,39.2,93,29.80,10.0,North,3.5,-,0.01,Rain,Light Rain,350,2013-10-06 09:13:00
4:33 AM,41.0,39.2,93,29.79,10.0,North,5.8,-,0.01,Rain,Light Rain,350,2013-10-06 09:33:00
4:53 AM,41.0,41.0,100,29.78,10.0,North,6.9,-,0.02,Rain,Rain,350,2013-10-06 09:53:00
5:13 AM,41.0,41.0,100,29.78,10.0,NNW,6.9,-,N/A,Rain,Light Rain,340,2013-10-06 10:13:00
5:33 AM,41.0,41.0,100,29.78,10.0,North,5.8,-,N/A,,Overcast,350,2013-10-06 10:33:00
5:53 AM,41.0,41.0,100,29.80,10.0,Calm,Calm,-,N/A,,Overcast,0,2013-10-06 10:53:00
6:13 AM,41.0,39.2,93,29.79,4.0,Calm,Calm,-,N/A,,Drizzle,0,2013-10-06 11:13:00
6:33 AM,41.0,39.2,93,29.80,2.0,Calm,Calm,-,N/A,,Light Drizzle,0,2013-10-06 11:33:00
6:53 AM,41.0,39.2,93,29.80,4.0,Calm,Calm,-,N/A,Rain,Rain,0,2013-10-06 11:53:00
7:13 AM,41.0,39.2,93,29.80,3.0,North,3.5,-,0.01,,Drizzle,350,2013-10-06 12:13:00
7:33 AM,41.0,39.2,93,29.80,2.5,North,4.6,-,0.01,,Drizzle,360,2013-10-06 12:33:00
7:53 AM,41.0,41.0,100,29.80,4.0,Calm,Calm,-,0.01,,Light Drizzle,0,2013-10-06 12:53:00
8:13 AM,41.0,39.2,93,29.80,7.0,Calm,Calm,-,N/A,,Overcast,0,2013-10-06 13:13:00
8:33 AM,41.0,41.0,100,29.79,10.0,North,3.5,-,N/A,,Overcast,10,2013-10-06 13:33:00
8:53 AM,42.8,41.0,93,29.78,10.0,North,3.5,-,N/A,,Overcast,350,2013-10-06 13:53:00
9:13 AM,42.8,41.0,93,29.78,10.0,North,3.5,-,N/A,,Overcast,350,2013-10-06 14:13:00
9:33 AM,42.8,42.8,100,29.79,10.0,NNW,5.8,-,N/A,,Overcast,340,2013-10-06 14:33:00
9:53 AM,42.8,42.8,100,29.79,7.0,NNW,6.9,-,N/A,,Overcast,340,2013-10-06 14:53:00
10:13 AM,42.8,42.8,100,29.78,10.0,NNW,8.1,-,N/A,,Overcast,330,2013-10-06 15:13:00
10:33 AM,42.8,42.8,100,29.78,10.0,North,4.6,-,N/A,,Overcast,350,2013-10-06 15:33:00
10:53 AM,44.6,42.8,93,29.78,10.0,NNW,5.8,-,N/A,,Overcast,330,2013-10-06 15:53:00
11:13 AM,44.6,42.8,93,29.78,7.0,North,5.8,-,N/A,,Overcast,350,2013-10-06 16:13:00
11:33 AM,44.6,44.6,100,29.78,10.0,NNW,9.2,-,N/A,,Overcast,330,2013-10-06 16:33:00
11:53 AM,44.6,44.6,100,29.78,10.0,NNW,9.2,-,N/A,,Overcast,340,2013-10-06 16:53:00
12:13 PM,44.6,44.6,100,29.78,10.0,NNW,9.2,-,N/A,,Overcast,330,2013-10-06 17:13:00
12:33 PM,46.4,44.6,93,29.77,10.0,NNW,6.9,-,N/A,,Overcast,330,2013-10-06 17:33:00
12:53 PM,46.4,44.6,93,29.77,10.0,NNW,6.9,-,N/A,,Overcast,330,2013-10-06 17:53:00
1:13 PM,46.4,44.6,93,29.77,10.0,NNW,6.9,-,N/A,,Overcast,340,2013-10-06 18:13:00
1:33 PM,46.4,44.6,93,29.78,10.0,NNW,9.2,-,N/A,,Overcast,330,2013-10-06 18:33:00
1:53 PM,46.4,46.4,100,29.77,10.0,NNW,5.8,-,N/A,,Overcast,330,2013-10-06 18:53:00
2:13 PM,46.4,46.4,100,29.77,10.0,NNW,6.9,-,N/A,,Overcast,330,2013-10-06 19:13:00
2:33 PM,46.4,46.4,100,29.77,10.0,NNW,5.8,-,N/A,,Overcast,340,2013-10-06 19:33:00
2:53 PM,46.4,46.4,100,29.76,10.0,NW,5.8,-,N/A,,Overcast,320,2013-10-06 19:53:00
3:13 PM,46.4,46.4,100,29.77,10.0,NNW,6.9,-,N/A,,Overcast,330,2013-10-06 20:13:00
3:33 PM,46.4,46.4,100,29.76,10.0,NNW,6.9,-,N/A,,Overcast,330,2013-10-06 20:33:00
3:53 PM,46.4,46.4,100,29.76,10.0,NNW,5.8,-,N/A,,Overcast,330,2013-10-06 20:53:00
4:13 PM,46.4,46.4,100,29.77,10.0,NNW,5.8,-,N/A,,Overcast,330,2013-10-06 21:13:00
4:33 PM,48.2,46.4,93,-9999,10.0,NW,4.6,-,N/A,,Overcast,320,2013-10-06 21:33:00
4:53 PM,48.2,48.2,100,29.76,10.0,Calm,Calm,-,N/A,,Overcast,0,2013-10-06 21:53:00
5:13 PM,48.2,48.2,100,29.77,10.0,NW,3.5,-,N/A,,Mostly Cloudy,310,2013-10-06 22:13:00
5:33 PM,51.8,51.8,100,29.77,10.0,Calm,Calm,-,N/A,,Scattered Clouds,0,2013-10-06 22:33:00
5:53 PM,51.8,50.0,94,29.77,10.0,Calm,Calm,-,N/A,,Clear,0,2013-10-06 22:53:00
6:13 PM,48.2,44.6,87,29.77,10.0,Calm,Calm,-,N/A,,Clear,0,2013-10-06 23:13:00
6:33 PM,42.8,41.0,93,29.77,10.0,Calm,Calm,-,N/A,,Clear,0,2013-10-06 23:33:00
6:53 PM,41.0,39.2,93,29.77,10.0,Calm,Calm,-,N/A,,Clear,0,2013-10-06 23:53:00
7:13 PM,39.2,37.4,93,29.77,10.0,Calm,Calm,-,N/A,,Clear,0,2013-10-07 00:13:00
7:33 PM,37.4,35.6,93,29.77,10.0,Calm,Calm,-,N/A,,Clear,0,2013-10-07 00:33:00
7:53 PM,35.6,35.6,100,29.78,10.0,Calm,Calm,-,N/A,,Clear,0,2013-10-07 00:53:00
8:13 PM,35.6,33.8,93,29.77,10.0,Calm,Calm,-,N/A,,Clear,0,2013-10-07 01:13:00
8:33 PM,33.8,33.8,100,29.77,7.0,Calm,Calm,-,N/A,,Clear,0,2013-10-07 01:33:00
8:53 PM,33.8,33.8,100,29.77,10.0,Calm,Calm,-,N/A,,Clear,0,2013-10-07 01:53:00
9:13 PM,33.8,32.0,93,29.77,10.0,Calm,Calm,-,N/A,,Clear,0,2013-10-07 02:13:00
9:33 PM,33.8,32.0,93,29.77,10.0,Calm,Calm,-,N/A,,Clear,0,2013-10-07 02:33:00
9:53 PM,32.0,30.2,93,29.77,10.0,Calm,Calm,-,N/A,,Clear,0,2013-10-07 02:53:00
10:13 PM,32.0,30.2,93,29.77,10.0,Calm,Calm,-,N/A,,Clear,0,2013-10-07 03:13:00
10:33 PM,32.0,30.2,93,29.77,10.0,Calm,Calm,-,N/A,,Clear,0,2013-10-07 03:33:00
10:53 PM,30.2,30.2,100,29.77,10.0,Calm,Calm,-,N/A,,Clear,0,2013-10-07 03:53:00
11:13 PM,30.2,30.2,100,29.77,10.0,Calm,Calm,-,N/A,,Clear,0,2013-10-07 04:13:00
11:33 PM,30.2,28.4,93,29.76,10.0,Calm,Calm,-,N/A,,Clear,0,2013-10-07 04:33:00
11:53 PM,30.2,28.4,93,29.76,10.0,Calm,Calm,-,N/A,,Clear,0,2013-10-07 04:53:00